Location: Unspecified
(0.0000°N, 0.0000°E)
Time: 12:03:25
(UTC+00:00)

Courier 1B - Visible Passes

Search period start: 07 October 2022 00:00
Search period end: 17 October 2022 00:00
Orbit: 962 x 1209 km, 28.3° (Epoch: 06 October)

Date Brightness Start Highest point End Pass type
(mag) Time Alt. Az. Time Alt. Az. Time Alt. Az.
07 Oct 8.1 19:00:35 10° NW 19:06:52 40° NNE 19:08:45 33° ENE visible
07 Oct 9.9 20:54:30 10° WNW 20:55:40 16° WNW 20:55:40 16° WNW visible
08 Oct 10.1 04:41:34 10° S 04:44:09 12° SSE 04:46:45 10° SE visible
08 Oct 8.6 18:07:05 10° NNW 18:12:58 29° NNE 18:18:36 10° E visible
08 Oct 7.9 20:00:28 10° WNW 20:05:48 58° W 20:05:48 58° W visible
09 Oct 7.4 19:06:33 10° NW 19:13:24 75° NNE 19:16:00 39° ESE visible
09 Oct 10.0 21:01:51 10° W 21:02:56 14° W 21:02:56 14° W visible
10 Oct 9.9 04:45:59 10° SSW 04:51:03 20° SSE 04:56:17 10° ESE visible
10 Oct 7.8 18:12:46 10° NW 18:19:34 54° NNE 18:26:01 10° ESE visible
10 Oct 8.5 20:07:21 10° W 20:13:11 41° SW 20:13:11 41° SW visible
11 Oct 9.9 03:53:18 10° S 03:56:55 14° SSE 04:00:38 10° SE visible
11 Oct 7.9 19:13:05 10° WNW 19:19:51 59° SSW 19:23:28 27° SE visible
11 Oct 10.2 21:10:12 10° WSW 21:10:25 11° WSW 21:10:25 11° WSW visible
12 Oct 10.1 03:02:34 10° SSE 03:02:43 10° SSE 03:02:53 10° SSE visible
12 Oct 9.2 04:51:21 10° SW 04:57:40 34° SSE 05:04:18 10° E visible
12 Oct 7.7 18:18:58 10° WNW 18:26:03 84° SSW 18:32:44 10° ESE visible
12 Oct 9.3 20:15:04 10° WSW 20:20:14 23° SSW 20:20:42 23° SSW visible
13 Oct 9.5 03:58:14 10° SSW 04:03:41 25° SSE 04:09:25 10° E visible
13 Oct 9.0 19:20:16 10° W 19:26:20 32° SSW 19:30:58 15° SSE visible
14 Oct 9.6 03:08:19 17° SSE 03:09:41 18° SSE 03:14:11 10° ESE visible
14 Oct 8.3 04:57:14 10° SW 05:04:08 60° SSE 05:11:28 10° ENE visible
14 Oct 8.6 18:25:44 10° WNW 18:32:29 46° SSW 18:38:53 10° SE visible
14 Oct 9.9 20:24:06 10° SW 20:27:02 13° SSW 20:28:09 13° SSW visible
15 Oct 8.6 04:05:26 18° SSW 04:10:14 43° SSE 04:17:03 10° E visible
15 Oct 9.7 19:28:24 10° WSW 19:32:59 18° SSW 19:37:28 10° SSE visible
16 Oct 8.9 03:15:39 30° SSE 03:16:21 30° SSE 03:22:25 10° E visible
16 Oct 7.7 05:03:36 10° WSW 05:10:32 77° NNW 05:17:57 10° NE visible
16 Oct 9.5 18:33:16 10° W 18:39:01 26° SSW 18:44:32 10° SSE visible
